Zurück zum Katalog

TIANTIE KEJI

AktivWissenschaftSSO
NORAD 63990·PAYLOAD·🇨🇳 China
Dieser Satellitenname wurde noch nicht durch offizielle Quellen bestätigt.

Gestartet May 14, 2025 von Jiuquan Satellite Launch Center

Loading…

Nächste Überflüge (nächste 24 Stunden)

TLE

AktuellSource: Space-Track

Epoche: Sep 14, 2026, 21:53 UTC

1 63990U 25100J   26257.91200499  .00015696  00000-0  63713-3 0  9991
2 63990  97.3549 332.6901 0006105   0.0969   0.0269 15.24664957 74520

Verfolge TIANTIE KEJI in Echtzeit mit AllMySat

Download on the App Store